| time (UTC) | temp C | wind direction | speed KPH | gust KPH | rain 1hr cm | rain 24hr cm | rain mn cm | humidity % | barometer mb |
| 20260903012100 | 23 | 202 | 0.0 | 0.0 | 0.00 | 0.33 | 0.33 | 100 | 1015.5 |
| 20260903010547 | 23 | 202 | 0.0 | 0.0 | 0.00 | 0.33 | 0.33 | 100 | 1015.7 |
| 20260903005046 | 23 | 201 | 0.0 | 0.0 | 0.00 | 0.33 | 0.33 | 100 | 1015.5 |
| 20260903003543 | 23 | 201 | 0.0 | 0.0 | 0.00 | 0.33 | 0.33 | 99 | 1015.3 |
| 20260903002041 | 23 | 201 | 0.0 | 0.0 | 0.00 | 0.33 | 0.33 | 99 | 1015.4 |
| 20260903001241 | 24 | 202 | 0.0 | 0.0 | 0.00 | 0.33 | 0.33 | 99 | 1015.3 |
| 20260902235724 | 24 | 202 | 0.0 | 0.0 | 0.00 | 0.33 | 0.33 | 99 | 1015.6 |
| 20260902233527 | 24 | 202 | 0.0 | 0.0 | 0.00 | 0.33 | 0.33 | 98 | 1015.3 |
| 20260902232014 | 25 | 202 | 0.0 | 0.0 | 0.00 | 0.33 | 0.33 | 98 | 1015.2 |
| 20260902230505 | 25 | 202 | 0.0 | 0.0 | 0.00 | 0.33 | 0.33 | 98 | 1015.6 |
| 20260902225005 | 25 | 201 | 0.0 | 0.0 | 0.00 | 0.33 | 0.33 | 98 | 1015.6 |
| 20260902223507 | 25 | 201 | 0.0 | 0.0 | 0.00 | 0.33 | 0.33 | 100 | 1015.6 |
| 20260902222002 | 24 | 202 | 0.0 | 0.0 | 0.00 | 0.33 | 0.33 | 100 | 1015.6 |
| 20260902220449 | 24 | 202 | 0.0 | 0.0 | 0.00 | 0.33 | 0.33 | 100 | 1015.8 |
| 20260902214947 | 24 | 202 | 0.0 | 0.0 | 0.00 | 0.33 | 0.33 | 100 | 1015.9 |
| 20260902213443 | 23 | 202 | 0.0 | 1.6 | 0.00 | 0.33 | 0.33 | 100 | 1016.3 |
| 20260902211936 | 23 | 202 | 0.0 | 0.0 | 0.00 | 0.33 | 0.33 | 100 | 1016.2 |
| 20260902210426 | 23 | 202 | 0.0 | 1.6 | 0.00 | 0.33 | 0.33 | 100 | 1016.3 |
| 20260902204910 | 23 | 202 | 0.0 | 0.0 | 0.00 | 0.33 | 0.33 | 100 | 1016.1 |
| 20260902203356 | 23 | 202 | 0.0 | 1.6 | 0.00 | 0.33 | 0.33 | 100 | 1016.1 |
| 20260902202550 | 23 | 202 | 0.0 | 1.6 | 0.00 | 0.33 | 0.33 | 100 | 1015.9 |
| 20260902201034 | 23 | 202 | 0.0 | 1.6 | 0.00 | 0.33 | 0.33 | 100 | 1016.1 |
| 20260902194844 | 23 | 202 | 1.6 | 6.4 | 0.00 | 0.33 | 0.33 | 100 | 1016.5 |
| 20260902194050 | 23 | 201 | 0.0 | 0.0 | 0.10 | 0.33 | 0.33 | 100 | 1016.1 |
| 20260902192532 | 23 | 201 | 1.6 | 6.4 | 0.33 | 0.33 | 0.33 | 100 | 1016.3 |
| 20260902190333 | 23 | 53 | 1.6 | 11.3 | 0.33 | 0.33 | 0.33 | 100 | 1015.8 |
| 20260902184825 | 23 | 66 | 3.2 | 14.5 | 0.33 | 0.33 | 0.33 | 100 | 1016.3 |
| 20260902183325 | 23 | 49 | 3.2 | 11.3 | 0.23 | 0.23 | 0.28 | 96 | 1017.0 |
| 20260902181824 | 25 | 111 | 6.4 | 24.1 | 0.00 | 0.00 | 0.00 | 90 | 1018.7 |
| 20260902180310 | 29 | 35 | 9.7 | 32.2 | 0.00 | 0.00 | 0.00 | 77 | 1018.1 |
| 20260902174809 | 32 | 40 | 0.0 | 3.2 | 0.00 | 0.00 | 0.00 | 78 | 1017.1 |
| 20260902173308 | 33 | 76 | 0.0 | 0.0 | 0.00 | 0.00 | 0.00 | 76 | 1017.1 |
| 20260902171807 | 32 | 61 | 0.0 | 0.0 | 0.00 | 0.00 | 0.00 | 76 | 1016.9 |
| 20260902170249 | 32 | 57 | 0.0 | 0.0 | 0.00 | 0.00 | 0.00 | 75 | 1016.7 |
| 20260902164744 | 33 | 80 | 0.0 | 0.0 | 0.00 | 0.00 | 0.00 | 74 | 1016.8 |
| 20260902163946 | 32 | 84 | 0.0 | 0.0 | 0.00 | 0.00 | 0.00 | 77 | 1016.8 |
| 20260902162421 | 32 | 83 | 0.0 | 0.0 | 0.00 | 0.00 | 0.00 | 75 | 1016.7 |
| 20260902160214 | 32 | 244 | 0.0 | 0.0 | 0.00 | 0.00 | 0.00 | 75 | 1016.5 |
| 20260902155407 | 32 | 51 | 0.0 | 0.0 | 0.00 | 0.00 | 0.00 | 77 | 1016.5 |
| 20260902153905 | 31 | 153 | 0.0 | 0.0 | 0.00 | 0.00 | 0.00 | 77 | 1016.5 |
| 20260902151712 | 31 | 123 | 0.0 | 0.0 | 0.00 | 0.00 | 0.00 | 79 | 1016.4 |
| 20260902150206 | 30 | 71 | 0.0 | 0.0 | 0.00 | 0.00 | 0.00 | 80 | 1016.5 |
| 20260902144704 | 31 | 66 | 0.0 | 0.0 | 0.00 | 0.00 | 0.00 | 79 | 1016.5 |
| 20260902143208 | 30 | 85 | 0.0 | 0.0 | 0.00 | 0.00 | 0.00 | 80 | 1016.4 |
| 20260902141659 | 30 | 50 | 0.0 | 0.0 | 0.00 | 0.00 | 0.00 | 82 | 1016.5 |
| 20260902140153 | 29 | 107 | 0.0 | 0.0 | 0.00 | 0.00 | 0.00 | 82 | 1016.5 |
| 20260902134645 | 29 | 92 | 0.0 | 0.0 | 0.00 | 0.00 | 0.00 | 83 | 1016.4 |
| 20260902133841 | 28 | 50 | 0.0 | 8.0 | 0.00 | 0.00 | 0.00 | 85 | 1016.5 |
| 20260902132335 | 28 | 53 | 0.0 | 9.7 | 0.00 | 0.00 | 0.00 | 86 | 1016.3 |
| 20260902130142 | 27 | 68 | 0.0 | 0.0 | 0.00 | 0.00 | 0.00 | 87 | 1016.3 |
| 20260902124633 | 27 | 109 | 0.0 | 0.0 | 0.00 | 0.00 | 0.00 | 90 | 1016.3 |
| 20260902123133 | 26 | 109 | 0.0 | 0.0 | 0.00 | 0.00 | 0.00 | 93 | 1016.1 |
| 20260902121636 | 26 | 109 | 0.0 | 3.2 | 0.00 | 0.00 | 0.00 | 93 | 1016.1 |
| 20260902120135 | 25 | 61 | 0.0 | 0.0 | 0.00 | 0.00 | 0.00 | 95 | 1015.9 |
| 20260902114624 | 25 | 59 | 0.0 | 0.0 | 0.00 | 0.00 | 0.00 | 95 | 1015.8 |
| 20260902113116 | 25 | 59 | 0.0 | 0.0 | 0.00 | 0.00 | 0.00 | 95 | 1015.6 |
| 20260902111608 | 25 | 59 | 0.0 | 0.0 | 0.00 | 0.00 | 0.00 | 95 | 1015.7 |
| 20260902110105 | 25 | 59 | 0.0 | 0.0 | 0.00 | 0.00 | 0.00 | 95 | 1015.8 |
| 20260902104557 | 25 | 59 | 0.0 | 0.0 | 0.00 | 0.00 | 0.00 | 95 | 1015.9 |
| 20260902103752 | 25 | 59 | 0.0 | 0.0 | 0.00 | 0.00 | 0.00 | 95 | 1015.7 |
| 20260902102239 | 25 | 59 | 0.0 | 0.0 | 0.00 | 0.00 | 0.00 | 94 | 1015.7 |
| 20260902100043 | 25 | 59 | 0.0 | 0.0 | 0.00 | 0.00 | 0.00 | 94 | 1015.3 |
| 20260902094522 | 25 | 59 | 0.0 | 0.0 | 0.00 | 0.00 | 0.00 | 93 | 1015.2 |
| 20260902093009 | 25 | 67 | 0.0 | 0.0 | 0.00 | 0.00 | 0.00 | 93 | 1015.3 |
| 20260902091508 | 25 | 59 | 0.0 | 0.0 | 0.00 | 0.00 | 0.00 | 93 | 1015.3 |
| 20260902090658 | 25 | 53 | 0.0 | 0.0 | 0.00 | 0.00 | 0.00 | 93 | 1015.4 |
| 20260902084458 | 25 | 346 | 0.0 | 0.0 | 0.00 | 0.00 | 0.00 | 93 | 1015.4 |
| 20260902082942 | 26 | 49 | 0.0 | 9.7 | 0.00 | 0.00 | 0.00 | 92 | 1015.5 |
| 20260902082122 | 26 | 64 | 1.6 | 9.7 | 0.00 | 0.00 | 0.00 | 92 | 1015.3 |
| 20260902080634 | 26 | 66 | 1.6 | 6.4 | 0.00 | 0.00 | 0.00 | 92 | 1015.1 |
| 20260902074433 | 26 | 57 | 0.0 | 9.7 | 0.00 | 0.00 | 0.00 | 92 | 1014.9 |
| 20260902072922 | 26 | 53 | 0.0 | 3.2 | 0.00 | 0.00 | 0.00 | 90 | 1015.0 |
| 20260902071416 | 26 | 36 | 0.0 | 0.0 | 0.00 | 0.00 | 0.00 | 89 | 1015.0 |
| 20260902065906 | 27 | 36 | 0.0 | 0.0 | 0.00 | 0.00 | 0.00 | 88 | 1014.9 |
| 20260902064403 | 27 | 36 | 0.0 | 3.2 | 0.00 | 0.00 | 0.00 | 86 | 1014.8 |
| 20260902062904 | 27 | 278 | 1.6 | 8.0 | 0.00 | 0.00 | 0.00 | 85 | 1014.6 |
| 20260902062056 | 27 | 285 | 1.6 | 9.7 | 0.00 | 0.00 | 0.00 | 83 | 1014.6 |
| 20260902060550 | 27 | 263 | 1.6 | 6.4 | 0.00 | 0.00 | 0.00 | 82 | 1014.5 |
| 20260902055040 | 28 | 268 | 0.0 | 8.0 | 0.00 | 0.00 | 0.00 | 81 | 1014.5 |
| 20260902052841 | 28 | 283 | 0.0 | 8.0 | 0.00 | 0.00 | 0.00 | 80 | 1014.5 |
| 20260902051336 | 28 | 263 | 0.0 | 3.2 | 0.00 | 0.00 | 0.00 | 80 | 1014.8 |
| 20260902045810 | 28 | 263 | 0.0 | 3.2 | 0.00 | 0.00 | 0.00 | 80 | 1014.8 |
| 20260902044308 | 28 | 263 | 0.0 | 1.6 | 0.00 | 0.00 | 0.00 | 80 | 1014.5 |
| 20260902043507 | 29 | 263 | 0.0 | 3.2 | 0.00 | 0.00 | 0.00 | 79 | 1014.2 |
| 20260902041256 | 29 | 263 | 0.0 | 9.7 | 0.00 | 0.00 | 0.00 | 78 | 1014.2 |
| 20260902035751 | 29 | 284 | 3.2 | 12.9 | 0.00 | 0.00 | 0.00 | 77 | 1014.1 |
| 20260902034250 | 29 | 279 | 3.2 | 12.9 | 0.00 | 0.00 | 0.00 | 78 | 1013.8 |
| 20260902032750 | 30 | 298 | 4.8 | 12.9 | 0.00 | 0.00 | 0.00 | 78 | 1013.5 |
| 20260902031245 | 30 | 312 | 4.8 | 12.9 | 0.00 | 0.00 | 0.00 | 79 | 1013.4 |
| 20260902030451 | 30 | 290 | 3.2 | 8.0 | 0.00 | 0.00 | 0.00 | 81 | 1013.3 |
| 20260902024952 | 30 | 278 | 1.6 | 9.7 | 0.00 | 0.00 | 0.00 | 80 | 1013.4 |
| 20260902022744 | 30 | 281 | 4.8 | 11.3 | 0.00 | 0.00 | 0.00 | 80 | 1013.7 |
| 20260902021243 | 30 | 279 | 1.6 | 8.0 | 0.00 | 0.00 | 0.00 | 84 | 1013.5 |
| 20260902015744 | 30 | 283 | 0.0 | 3.2 | 0.00 | 0.00 | 0.00 | 84 | 1013.4 |
| 20260902014241 | 30 | 273 | 0.0 | 6.4 | 0.00 | 0.00 | 0.00 | 84 | 1013.2 |